Volver al catálogo

ONEWEB-0059

ActivoComunicacionesPO
NORAD 45162·PAYLOAD·🇬🇧 United Kingdom

Lanzado Feb 6, 2020 desde Baikonur Cosmodrome

Loading…

Próximos Pases (próximas 24 horas)

TLE

ActualizadoSource: CelesTrak SupGP

Época: Sep 14, 2026, 19:08 UTC

1 45162C 20008AH  26257.79738840  .00002273  00000+0  65193-2 0  2572
2 45162  87.8918  18.4347 0002084 107.4983   1.6939 13.10378780    11

Sigue ONEWEB-0059 en tiempo real con AllMySat

Download on the App Store